Tracking 17842 objects as of 29-August-2016
HD Live streaming from Space Station
objects crossing your sky now

TURKSAT 2A

Track TURKSAT 2A now!
TURKSAT 2A is classified as:


NORAD ID: 26666
Int'l Code: 2001-002A
Perigee: 35,781.1 km
Apogee: 35,807.3 km
Inclination: 0.5 °
Period: 1,436.1 minutes
Semi major axis: 42165 km
RCS: 3.9 m2 (large)
Launch date: January 10, 2001
Source: Turkey (TURK)
Launch site: FRENCH GUIANA (FRGUI)

32 Ku-band transponders; direct-to-home voice, video, and data transmissions to countries between central Europe and the Indian subcontinent.
Your satellite tracking list
Your tracking list is empty





NASA's NSSDC Master Catalog

Two Line Element Set (TLE):
1 26666U 01002A   16239.95158253 +.00000116 +00000-0 +00000-0 0  9996
2 26666 000.5402 084.7830 0003114 064.4863 210.7410 01.00270188057115
Source of the keplerian elements: AFSPC

N2YO: 746